Home > Weather > Weno > Past weeks

Flag for Micronesia Past Weather in Weno, Truk, Micronesia — Yesterday and Last 2 Weeks

Now
84 °F

Mostly cloudy.


Feels Like: 96 °F
Forecast: 80 / 87 °F
Wind: 6 mph from North

Location: Truk Intl / Moen Island

Current Time: May 30, 2016 at 8:46:09 PM

Latest Report: May 30, 2016 at 7:52 PM


Visibility: 15 mi

Pressure: 29.88 "Hg

Humidity: 82%

Dew Point: 78 °F

Location of WenoLocation

Past Weather in Weno — Graph

°F

Weno Temperature Yesterday

Maximum temperature yesterday: 89 °F (at 11:53 AM)
Minimum temperature yesterday: 81 °F (at 12:50 AM)
Average temperature yesterday: 85 °F

High & Low Weather Summary for the Past Weeks

 TemperatureHumidityPressure
High102 °F (May 23, 2:51 PM)100% (May 25, 9:02 AM)29.94 "Hg (May 25, 9:02 AM)
Low78 °F (May 19, 10:50 PM)49% (May 23, 2:51 PM)29.74 "Hg (May 16, 3:52 AM)
Average83 °F85%29.84 "Hg
* Reported May 15 6:50 PM — May 30 6:50 PM, Weno, Weather by CustomWeather, © 2016

Note: Actual official high and low records may vary slightly from our data, if they occured in-between our weather recording intervals... More about our weather records

Advertising

Weno Weather History for the Previous 24 Hours

Scroll right to see more
 ConditionsComfort  
Time TempWeatherWind HumidityBarometerVisibility
6:50 PM
Mon, May 30
83 °FMostly cloudy.6 mph82%29.85 "Hg15 mi
5:50 PM85 °FPartly sunny.7 mph80%29.85 "Hg15 mi
4:50 PM86 °FPartly sunny.8 mph77%29.84 "Hg15 mi
3:50 PM88 °FPartly sunny.10 mph75%29.83 "Hg15 mi
2:50 PM89 °FPartly sunny.8 mph74%29.83 "Hg15 mi
1:50 PM88 °FPartly sunny.10 mph75%29.84 "Hg15 mi
12:51 PM89 °FScattered clouds.3 mph73%29.86 "Hg15 mi
11:50 AM89 °FScattered clouds.5 mph74%29.87 "Hg15 mi
10:50 AM88 °FPartly sunny.6 mph73%29.89 "Hg15 mi
9:50 AM88 °FPartly sunny.8 mph73%29.90 "Hg15 mi
8:50 AM87 °FScattered clouds.9 mph78%29.91 "Hg15 mi
7:51 AM85 °FScattered clouds.8 mph82%29.91 "Hg15 mi
6:54 AM83 °FSprinkles. Partly sunny.8 mph84%29.90 "Hg15 mi
5:50 AM83 °FScattered clouds.8 mph81%29.88 "Hg15 mi
4:54 AM82 °FPassing clouds.6 mph86%29.86 "Hg15 mi
3:54 AM82 °FPassing clouds.6 mph86%29.86 "Hg15 mi
2:58 AM81 °FPartly cloudy.3 mph91%29.86 "Hg15 mi
1:57 AM81 °FSprinkles. Partly cloudy.3 mph91%29.87 "Hg14 mi
12:52 AM83 °FPassing clouds.3 mph85%29.87 "Hg15 mi
11:53 PM
Sun, May 29
83 °FPartly cloudy.5 mph83%29.89 "Hg15 mi
10:53 PM83 °FPartly cloudy.7 mph81%29.89 "Hg15 mi
9:56 PM84 °FPartly cloudy.7 mph84%29.90 "Hg15 mi
8:52 PM84 °FPartly cloudy.6 mph81%29.90 "Hg15 mi
Weather by CustomWeather, © 2016

See weather overviewHow to use our weather pages